This is the latest recevied weather packets stored in our database for station/object KJ6APE. If no packets are shown the sender has not sent any weather packets the latest 10 day(s).
| Time | Temp. | Humidity | Pressure | Rain* | Wind** | Luminosity | Snow |
|---|---|---|---|---|---|---|---|
| 1777503522 | 26.67° C | 29% | 1015.8 hPa | 0 mm | - | 768 W/m² | - |
| 1777503219 | 26.67° C | 29% | 1015.6 hPa | 0 mm | - | 785 W/m² | - |
| 1777502916 | 26.67° C | 29% | 1016 hPa | 0 mm | - | 799 W/m² | - |
| 1777502613 | 26.11° C | 30% | 1015.9 hPa | 0 mm | - | 813 W/m² | - |
| 1777502310 | 26.67° C | 31% | 1016.1 hPa | 0 mm | - | 823 W/m² | - |
| 1777502006 | 26.67° C | 31% | 1015.9 hPa | 0 mm | - | 835 W/m² | - |
| 1777501703 | 26.67° C | 31% | 1015.9 hPa | 0 mm | - | 848 W/m² | - |
| 1777501401 | 26.67° C | 29% | 1016 hPa | 0 mm | - | 863 W/m² | - |
| 1777501098 | 26.67° C | 31% | 1016.3 hPa | 0 mm | - | 875 W/m² | - |
| 1777500796 | 26.67° C | 31% | 1016.2 hPa | 0 mm | - | 890 W/m² | - |
| 1777500494 | 26.67° C | 36% | 1016.2 hPa | 0 mm | - | 898 W/m² | - |
| 1777500189 | 27.22° C | 32% | 1016.2 hPa | 0 mm | - | 904 W/m² | - |
| 1777499886 | 27.22° C | 33% | 1016.2 hPa | 0 mm | - | 917 W/m² | - |
| 1777499583 | 26.67° C | 33% | 1016.3 hPa | 0 mm | - | 932 W/m² | - |
| 1777499280 | 26.67° C | 34% | 1016.3 hPa | 0 mm | - | 938 W/m² | - |
| 1777498978 | 26.11° C | 33% | 1016.4 hPa | 0 mm | - | 942 W/m² | - |
| 1777498673 | 26.67° C | 31% | 1016.5 hPa | 0 mm | - | 951 W/m² | - |
| 1777498370 | 26.11° C | 31% | 1016.5 hPa | 0 mm | - | 966 W/m² | - |
| 1777498068 | 26.67° C | 34% | 1016.4 hPa | 0 mm | - | 969 W/m² | - |
| 1777497764 | 26.67° C | 35% | 1016.5 hPa | 0 mm | - | 969 W/m² | - |
| 1777497461 | 26.67° C | 39% | 1016.4 hPa | 0 mm | - | 967 W/m² | - |
| 1777497157 | 26.67° C | 35% | 1016.6 hPa | 0 mm | - | 972 W/m² | - |
| 1777496854 | 26.11° C | 36% | 1016.3 hPa | 0 mm | - | 989 W/m² | - |
| 1777496551 | 26.11° C | 33% | 1016.4 hPa | 0 mm | - | 988 W/m² | - |
| 1777496247 | 26.11° C | 34% | 1016.6 hPa | 0 mm | - | 993 W/m² | - |
* Rain latest hour (hover to see other rain measurements)
** Current wind speed in m/s (hover to see current wind gust speed)